Home   Weather   Sivaganga   Past weeks

Flag for India Past Weather in Sivaganga, Tamil Nadu, India — Yesterday and Last 2 Weeks

Now
79 °F

Haze.


Feels Like: 80 °F
Forecast: 69 / 87 °F
Wind: 9 mph from East

Location: Tiruchchirapalli

Current Time: Jan 23, 2017 at 8:53:31 pm

Latest Report: Jan 23, 2017 at 8:30 pm


Visibility: 2 mi

Pressure: 29.98 "Hg

Humidity: 51%

Dew Point: 59 °F

Location of SivagangaLocation

Past Weather in Sivaganga — Graph

°F

Sivaganga Temperature Yesterday

Maximum temperature yesterday: 88 °F (at 3:30 pm)
Minimum temperature yesterday: 73 °F (at 12:00 am)
Average temperature yesterday: 78 °F

High & Low Weather Summary for the Past Weeks

 TemperatureHumidityPressure
High91 °F (Jan 10, 3:30 pm)100% (Jan 21, 11:30 pm)30.04 "Hg (Jan 21, 11:30 pm)
Low68 °F (Jan 9, 5:30 am)31% (Jan 11, 3:30 pm)29.74 "Hg (Jan 9, 4:30 pm)
Average78 °F67%29.91 "Hg
* Reported Jan 8 7:30 pm — Jan 23 7:30 pm, Sivaganga, Weather by CustomWeather, © 2017

Note: Actual official high and low records may vary slightly from our data, if they occured in-between our weather recording intervals... More about our weather records

Advertising

Sivaganga Weather History for the Previous 24 Hours

Scroll right to see more
 ConditionsComfort  
Time TempWeatherWind HumidityBarometerVisibility
7:30 pm
Mon, Jan 23
79 °FHaze.9 mph65%29.95 "Hg2 mi
7:00 pm81 °FHaze.9 mph62%29.95 "Hg3 mi
6:30 pm84 °FHaze.12 mph55%29.92 "Hg3 mi
6:00 pm84 °FPassing clouds.14 mph55%29.92 "Hg4 mi
5:30 pm86 °FPassing clouds.12 mph52%29.89 "Hg4 mi
5:00 pm86 °FPassing clouds.9 mph52%29.89 "Hg4 mi
4:00 pm88 °FPassing clouds.9 mph49%29.89 "Hg4 mi
3:30 pm90 °FPassing clouds.12 mph46%29.89 "Hg4 mi
3:00 pm90 °FPassing clouds.12 mph46%29.89 "Hg4 mi
2:30 pm90 °FPassing clouds.12 mph46%29.92 "Hg4 mi
2:00 pm88 °FPassing clouds.13 mph49%29.92 "Hg4 mi
1:30 pm88 °FHaze.13 mph49%29.95 "Hg3 mi
1:00 pm88 °FHaze.8 mph49%29.95 "Hg3 mi
12:30 pm86 °FHaze.13 mph52%29.98 "Hg3 mi
12:00 pm84 °FHaze.8 mph55%30.01 "Hg3 mi
11:30 am84 °FHaze.9 mph55%30.01 "Hg3 mi
11:00 am84 °FScattered clouds.9 mph55%30.04 "Hg3 mi
10:30 am82 °FScattered clouds.12 mph58%30.04 "Hg3 mi
10:00 am82 °FScattered clouds.9 mph58%30.04 "Hg2 mi
9:30 am81 °FScattered clouds.9 mph62%30.04 "Hg2 mi
9:00 am79 °FScattered clouds.9 mph65%30.04 "Hg2 mi
8:30 am77 °FHaze.10 mph69%30.04 "Hg2 mi
8:00 am75 °FFog.9 mph74%30.01 "Hg1 mi
7:30 am73 °FFog.9 mph78%30.01 "Hg1 mi
7:00 am72 °FFog.9 mph83%29.98 "Hg1 mi
6:30 am70 °FFog.6 mph94%29.98 "Hg1 mi
6:00 am70 °FFog.7 mph94%29.98 "Hg1 mi
5:30 am72 °FFog.No wind88%29.98 "Hg1 mi
5:00 am72 °FFog.3 mph88%29.98 "Hg1 mi
4:30 am72 °FFog.5 mph88%29.95 "Hg1 mi
4:00 am72 °FFog.3 mph88%29.95 "Hg1 mi
3:30 am72 °FFog.3 mph88%29.95 "Hg2 mi
3:00 am72 °FFog.5 mph88%29.95 "Hg2 mi
2:30 am72 °FFog.5 mph88%29.95 "Hg2 mi
2:00 am72 °FFog.7 mph88%29.95 "Hg2 mi
1:30 am72 °FFog.9 mph88%29.98 "Hg2 mi
1:00 am72 °FFog.7 mph88%29.98 "Hg2 mi
12:30 am72 °FFog.7 mph94%30.01 "Hg2 mi
12:00 am73 °FFog.6 mph89%30.01 "Hg2 mi
11:30 pm
Sun, Jan 22
73 °FFog.No wind89%30.01 "Hg2 mi
11:00 pm73 °FFog.No wind89%30.04 "Hg2 mi
10:30 pm75 °FFog.No wind78%30.04 "Hg2 mi
10:00 pm75 °FFog.5 mph78%30.04 "Hg2 mi
9:30 pm75 °FFog.No wind78%30.04 "Hg2 mi
9:00 pm77 °FHaze.5 mph74%30.01 "Hg3 mi
8:30 pm77 °FHaze.9 mph74%30.01 "Hg3 mi
8:00 pm77 °FHaze.10 mph74%29.98 "Hg3 mi
Weather by CustomWeather, © 2017

See weather overviewHow to use our weather pages